Retour au catalogue

STARLINK-30911

ActifCommunicationsVLEO
NORAD 58374·PAYLOAD·🇺🇸 United States

Lancé Nov 20, 2023 depuis Vandenberg Space Force Base

Loading…

Prochains Passages (prochaines 24 heures)

TLE

FraisSource: CelesTrak SupGP

Époque: Sep 15, 2026, 02:37 UTC

1 58374C 23178A   26258.10951389 -.00079696  00000+0 -23547-2 0  2586
2 58374  53.1589 196.8255 0001321  88.1542 306.7907 15.34429237    14

Suivez STARLINK-30911 en temps réel avec AllMySat

Download on the App Store